{"data":{"norad_id":40545,"epoch":"2026-05-23T19:58:12.696096Z","epoch_age_seconds":179053,"freshness":"STALE","line1":"1 40545U 15017B   26143.83209139 -.00000090  00000+0  00000+0 0  9991","line2":"2 40545  56.8011 342.2776 0001794 265.4418  94.5573  1.70475655 31831","mean_motion":1.70475655,"eccentricity":0.0001794,"inclination_deg":56.8011,"raan_deg":342.2776,"arg_perigee_deg":265.4418,"mean_anomaly_deg":94.5573,"bstar":0,"rev_number":3183,"period_min":844.6953906703,"perigee_km":23216.681218348,"apogee_km":23227.301744447,"semimajor_km":29600.128481397,"source":"CELESTRAK","updated_at":"2026-05-25T13:38:24.053759Z"}}